SL-8 DEB *

Satellite information

Favourite Embed

Satellite Type and Status

DEBRISIN ORBIT

Key statistics

Satellite SL-8 DEB * at a glance.

Uptime

17830

Days in orbit

Revolutions

≈ 14.6

Per day

Orbit

LEO

Low Earth Orbit

Inclination

74.1

Latest

Satellite identification and parameters

Extended collection of information and parameters for SL-8 DEB *.

Object identification

Identified? True

Debris? True

Object name: SL-8 DEB *

International designator: 1976-069D

Object number (NORAD): 13499

Object ID (CCSDS): 13499

Country: COMMONWEALTH OF INDEPENDENT STATES (CIS)

Current information (Y/N): Y

RCS size: SMALL

Orbital parameters

Period: 98.551 minutes

Inclination: 74.0564 deg

SMA: 7067.514 km

Apoapsis: 698.627 km

Periapsis: 680.13 km

RAAN: 20.5354 deg

Eccentricy: 0.0013086

Argument of periapsis: 354.4573 deg

Mean anomaly: 125.5461 deg

Mean motion: 14.61176862 rev/day

Mean motion (dot): 0.00002508 rev/day2

B* drag term: 0.00051459 1/REarth

Two-line elements (TLE)

Creation date: May 9, 2025, 2:46 a.m.

Reference frame: TEME

Reference center: EARTH

Epoch: May 8, 2025, 8:20 p.m. UTC

TLE line 0: 0 SL-8 DEB *

TLE line 1: 1 13499U 76069D 25128.84735473 .00002508 00000-0 51459-3 0 9995

TLE line 2: 2 13499 74.0564 20.5354 0013086 354.4573 125.5461 14.61176862336808

Live tracking on map

Real-time ground track for satellite SL-8 DEB *.

In-orbit conjunctions

A list of the most updated potential collisions computed for object SL-8 DEB *.

Target Orbit TCA Probability of collision Miss distance Type
IRIDIUM 33 DEB LEO 2024-11-12 15:30:29 0.0001433009 145.0 (m) DEBRIS
FENGYUN 1C DEB SSO 2024-11-08 09:12:50 0.0002141707 919.0 (m) DEBRIS
FREGAT DEB MEO 2024-09-07 03:45:35 0.0001930079 151.0 (m) DEBRIS
ATLAS F BURNER 2 R/B SSO 2024-08-02 19:24:30 0.0002496276 969.0 (m) ROCKET BODY

Associated space launch

Military communications satellite

SL-8 DEB * was lifted into orbit during the mission ‘Kosmos-3M | Strela-2M 13’, on board a Kosmos-3M space rocket.

The launch took place on July 15, 1976, 1:11 p.m. from 132/1 (132L).

For more information about the launch, click the button.

Launch to space Kosmos-3M | Strela-2M 13
Kosmos-3M | Strela-2M 13

Agency: N/A

Status: Launch Successful

Launch date: July 15, 1976, 1:11 p.m. UTC

Rocket: Kosmos-3M

Launch pad: 132/1 (132L)

Location: Plesetsk Cosmodrome, Russian Federation

...

Latest news about this satellite

There are no fresh news available about this satellite. Check back as we update our databases every day.


Newsletter sign-up

Weekly statistics, charts and insights to help you stay on top of the space industry.